[[{"header":{"parameterUnit":"m.s-1","parameterCategory":1,"la1":30.2991,"la2":30.254,"lo1":-89.0895,"lo2":-89.0444,"dy":0.0017,"dx":0.0017,"nx":28,"ny":28,"refTime":"2024-10-01T21:00:00:Z","depth":0,"parameterNumber":2,"parameterNumberName":"U-component_of_WINDS"},"data":[0,0,0,0,0,0,0,0,0,0,0,0,0,0,0,0,0,0,0,0,0,0,0,0,0,0,0,0,0,0,0,0,0,0,0,0,0,0,0,0,0,0,0,0,0,0,0,0,0,0,0,0,0,0,0,0,0,0,-0.5263,-0.5263,0,-0.5226,-0.5226,-0.5225,-0.519,-0.5189,-0.5189,-0.5188,-0.515,-0.515,-0.5149,0,0,0,0,0,0,0,0,0,0,0,0,0,-0.5302,-0.5302,-0.5263,-0.5263,-0.5262,-0.5226,-0.5226,-0.5225,-0.519,-0.5189,-0.5188,-0.5188,-0.515,-0.515,-0.5149,0,0,0,0,0,0,0,0,0,0,0,0,0,-0.5277,-0.5301,-0.5263,-0.524,-0.5238,-0.5226,-0.5226,-0.5225,-0.519,-0.5189,-0.5188,-0.5188,-0.5151,-0.515,-0.5149,-0.5157,0,0,-0.5146,-0.5146,0,0,0,0,0,0,0,0,-0.5279,-0.5276,-0.5244,-0.5242,-0.5239,-0.5212,-0.5225,-0.5202,-0.519,-0.5208,-0.5188,-0.5187,-0.5171,-0.5169,-0.5163,-0.5155,-0.5154,-0.5146,-0.5146,-0.5145,-0.5145,0,0,0,0,0,0,0,-0.528,-0.5277,-0.5249,-0.5244,-0.5241,-0.5231,-0.5227,-0.5221,-0.5194,-0.5206,-0.5204,-0.52,-0.517,-0.5164,-0.5162,-0.5153,-0.5146,-0.5145,-0.5145,-0.5144,-0.515,-0.515,0,0,0,0,0,0,-0.5286,-0.5279,-0.525,-0.5247,-0.5258,-0.5231,-0.5226,-0.5221,-0.5194,-0.5189,-0.52,-0.5198,-0.5166,-0.5163,-0.5161,-0.5168,-0.5145,-0.5144,-0.5144,-0.5149,-0.515,-0.515,0,0,0,0,0,0,-0.5287,-0.5283,-0.5251,-0.5262,-0.5258,-0.5231,-0.5226,-0.5221,-0.5215,-0.5189,-0.5184,-0.52,-0.5165,-0.5162,-0.5158,-0.5166,-0.5144,-0.5143,-0.5148,-0.5149,-0.515,-0.5184,0,0,0,0,0,0,-0.5288,-0.5284,-0.5287,-0.5263,-0.5257,-0.525,-0.5226,-0.5221,-0.5214,-0.5211,-0.5187,-0.5183,-0.5164,-0.516,-0.5157,-0.5165,-0.5142,-0.5147,-0.5149,-0.515,-0.5182,-0.5186,-0.5189,0,0,0,0,0,-0.5289,-0.5298,-0.5288,-0.5284,-0.5261,-0.525,-0.5247,-0.5226,-0.5215,-0.5217,-0.5201,-0.5184,-0.5166,-0.516,-0.5157,-0.5164,-0.5147,-0.5148,-0.515,-0.518,-0.5185,-0.5189,0,0,0,0,0,0,-0.5325,-0.5295,-0.5283,-0.5284,-0.527,-0.5244,-0.5247,-0.5232,-0.5221,-0.5218,-0.5192,-0.5187,-0.5186,-0.5175,-0.5168,-0.517,-0.5154,-0.5155,-0.5178,-0.5182,-0.5186,-0.5189,-0.5142,0,0,0,0,0,-0.5333,-0.5327,-0.5301,-0.5305,-0.5298,-0.5274,-0.5269,-0.5254,-0.5238,-0.5232,-0.5215,-0.5201,-0.5191,-0.5186,-0.5176,-0.518,-0.5174,-0.5183,-0.5187,-0.519,-0.5191,-0.5191,-0.5195,-0.5155,-0.5155,-0.5155,0,0,-0.5349,-0.5332,-0.533,-0.5311,-0.5299,-0.5293,-0.5269,-0.5265,-0.526,-0.5231,-0.5227,-0.5214,-0.5196,-0.5195,-0.5194,-0.5186,-0.5201,-0.5192,-0.5194,-0.5194,-0.5193,-0.5197,-0.52,-0.5156,-0.5156,-0.5156,0,0,-0.5376,-0.5363,-0.5364,-0.5352,-0.5333,-0.5316,-0.5317,-0.5293,-0.5284,-0.5279,-0.5256,-0.525,-0.5236,-0.5223,-0.5215,-0.5237,-0.522,-0.5234,-0.5254,-0.5254,-0.5257,-0.526,-0.5267,-0.527,-0.5235,-0.5236,-0.5236,0,-0.5399,-0.539,-0.5367,-0.5363,-0.5355,-0.5328,-0.5329,-0.5318,-0.5297,-0.5292,-0.5283,-0.5263,-0.5249,-0.5245,-0.525,-0.5244,-0.5244,-0.5237,-0.5259,-0.5261,-0.5263,-0.527,-0.5273,-0.5237,-0.5237,-0.5237,-0.5237,0,-0.5418,-0.5412,-0.5416,-0.5396,-0.5388,-0.5387,-0.5363,-0.5358,-0.5343,-0.5328,-0.5322,-0.5305,-0.529,-0.5288,-0.5274,-0.5282,-0.5277,-0.5263,-0.5247,-0.5269,-0.5275,-0.5277,-0.524,-0.5239,-0.5239,-0.5238,0,0,-0.5467,-0.5434,-0.5436,-0.5426,-0.5403,-0.5397,-0.5395,-0.5381,-0.5377,-0.5363,-0.5359,-0.5347,-0.5334,-0.5325,-0.5308,-0.5309,-0.5326,-0.5295,-0.5294,-0.5301,-0.5334,-0.5344,-0.5348,-0.5315,-0.5315,-0.5316,-0.5335,0,-0.549,-0.5484,-0.5462,-0.5462,-0.5456,-0.543,-0.5427,-0.5412,-0.5398,-0.539,-0.5373,-0.5365,-0.5348,-0.5342,-0.5342,-0.5324,-0.5332,-0.5322,-0.5311,-0.5311,-0.5317,-0.5351,-0.5362,-0.5381,-0.5337,-0.5338,-0.5338,0,-0.5516,-0.5504,-0.5503,-0.548,-0.5476,-0.5474,-0.5459,-0.5452,-0.5435,-0.5424,-0.5413,-0.5395,-0.539,-0.5374,-0.5366,-0.536,-0.5354,-0.5345,-0.5345,-0.5343,-0.5326,-0.535,-0.5387,-0.539,-0.5341,-0.5341,-0.5341,0,-0.5552,-0.5535,-0.5532,-0.5525,-0.5497,-0.5496,-0.5485,-0.5466,-0.5459,-0.5446,-0.5441,-0.5427,-0.542,-0.5409,-0.5388,-0.5378,-0.5382,-0.5365,-0.5373,-0.5373,-0.5375,-0.5376,-0.5412,-0.5371,-0.5371,-0.5371,-0.5371,0,-0.558,-0.5581,-0.5548,-0.5546,-0.5546,-0.552,-0.5521,-0.5506,-0.549,-0.5485,-0.5461,-0.5457,-0.5428,-0.542,-0.5403,-0.5399,-0.5396,-0.5387,-0.5382,-0.5389,-0.539,-0.5385,-0.5383,-0.5372,-0.5372,-0.5372,-0.5372,0,-0.562,-0.5598,-0.5593,-0.5567,-0.556,-0.5561,-0.5539,-0.5536,-0.5519,-0.5513,-0.551,-0.5484,-0.5473,-0.545,-0.5433,-0.5422,-0.5422,-0.5414,-0.5428,-0.5425,-0.5434,-0.5434,-0.5469,-0.5472,-0.543,-0.543,-0.543,0,-0.5639,-0.5639,-0.5613,-0.5608,-0.5597,-0.5589,-0.5581,-0.5556,-0.5549,-0.5528,-0.5528,-0.5515,-0.5504,-0.5488,-0.5467,-0.5454,-0.5445,-0.5458,-0.5443,-0.545,-0.5445,-0.5446,-0.5445,-0.5462,-0.5463,-0.5463,-0.5463,0,-0.5676,-0.5665,-0.5655,-0.5641,-0.5633,-0.562,-0.5607,-0.5604,-0.5575,-0.5568,-0.5557,-0.5548,-0.5531,-0.5518,-0.5502,-0.5489,-0.5472,-0.5468,-0.5469,-0.5476,-0.5485,-0.548,-0.5437,-0.5468,-0.5467,-0.5467,-0.5467,-0.5467,-0.5706,-0.5705,-0.5686,-0.5675,-0.5662,-0.565,-0.5646,-0.5628,-0.5618,-0.5602,-0.5588,-0.5578,-0.5559,-0.5535,-0.5524,-0.5515,-0.5506,-0.5508,-0.5508,-0.5509,-0.5512,-0.5486,-0.5512,-0.5512,-0.5512,-0.5511,-0.5511,0,-0.5742,-0.5728,-0.5718,-0.57,-0.5692,-0.5675,-0.5659,-0.5653,-0.5645,-0.5629,-0.5618,-0.5605,-0.5592,-0.557,-0.5556,-0.5553,-0.5545,-0.555,-0.555,-0.5548,-0.5521,-0.5521,-0.5557,-0.5557,-0.5557,-0.5557,-0.5557,-0.5557,-0.5759,-0.5755,-0.5742,-0.5731,-0.5717,-0.5707,-0.5699,-0.5688,-0.5675,-0.5661,-0.565,-0.5636,-0.5618,-0.5602,-0.5589,-0.5583,-0.5579,-0.5587,-0.5578,-0.5554,-0.555,-0.5545,-0.5546,-0.5586,-0.5586,-0.5606,-0.5606,-0.5606]},{"header":{"parameterUnit":"m.s-1","parameterCategory":1,"la1":30.2991,"la2":30.254,"lo1":-89.0895,"lo2":-89.0444,"dy":0.0017,"dx":0.0017,"nx":28,"ny":28,"refTime":"2024-10-01T21:00:00:Z","depth":0,"parameterNumber":3,"parameterNumberName":"V-component_of_WINDS"},"data":[0,0,0,0,0,0,0,0,0,0,0,0,0,0,0,0,0,0,0,0,0,0,0,0,0,0,0,0,0,0,0,0,0,0,0,0,0,0,0,0,0,0,0,0,0,0,0,0,0,0,0,0,0,0,0,0,0,0,-3.0309,-3.031,0,-3.0388,-3.0389,-3.039,-3.0435,-3.0435,-3.0435,-3.0436,-3.0515,-3.0517,-3.0519,0,0,0,0,0,0,0,0,0,0,0,0,0,-3.0197,-3.0198,-3.0309,-3.031,-3.0311,-3.0388,-3.0389,-3.039,-3.0435,-3.0435,-3.0435,-3.0436,-3.0514,-3.0516,-3.0519,0,0,0,0,0,0,0,0,0,0,0,0,0,-3.0257,-3.0199,-3.0309,-3.0343,-3.0346,-3.0388,-3.0389,-3.0391,-3.0435,-3.0435,-3.0436,-3.0436,-3.0513,-3.0516,-3.0519,-3.0533,0,0,-3.0528,-3.0529,0,0,0,0,0,0,0,0,-3.0254,-3.0262,-3.0337,-3.034,-3.0345,-3.0402,-3.0379,-3.0438,-3.0435,-3.0401,-3.0436,-3.0436,-3.0477,-3.0483,-3.0497,-3.0536,-3.054,-3.0528,-3.053,-3.0531,-3.0532,0,0,0,0,0,0,0,-3.025,-3.0258,-3.034,-3.0338,-3.0343,-3.0354,-3.0363,-3.039,-3.0437,-3.0404,-3.0408,-3.0417,-3.0479,-3.0494,-3.0499,-3.0541,-3.0528,-3.0531,-3.0533,-3.0534,-3.0599,-3.0599,0,0,0,0,0,0,-3.024,-3.0255,-3.0338,-3.0343,-3.0299,-3.0356,-3.0366,-3.0383,-3.0437,-3.0445,-3.0416,-3.0418,-3.0489,-3.0496,-3.0502,-3.0525,-3.0531,-3.0534,-3.0536,-3.0599,-3.0599,-3.0599,0,0,0,0,0,0,-3.0238,-3.0247,-3.0335,-3.03,-3.0312,-3.0358,-3.0377,-3.0385,-3.04,-3.0446,-3.0454,-3.0423,-3.049,-3.0498,-3.0526,-3.0528,-3.0535,-3.0538,-3.0599,-3.0599,-3.0599,-3.0567,0,0,0,0,0,0,-3.0234,-3.0246,-3.0251,-3.03,-3.0313,-3.0356,-3.0377,-3.0386,-3.0405,-3.0409,-3.0454,-3.0462,-3.049,-3.0521,-3.0529,-3.0532,-3.054,-3.0599,-3.0599,-3.0599,-3.0568,-3.0566,-3.0564,0,0,0,0,0,-3.023,-3.0237,-3.0251,-3.0261,-3.0321,-3.0356,-3.0364,-3.0397,-3.0405,-3.0411,-3.0441,-3.0461,-3.0526,-3.0524,-3.0533,-3.0537,-3.0599,-3.0599,-3.0599,-3.0569,-3.0566,-3.0564,0,0,0,0,0,0,-3.0186,-3.0244,-3.026,-3.0283,-3.0315,-3.0364,-3.0372,-3.0393,-3.0422,-3.0424,-3.0463,-3.0473,-3.0497,-3.052,-3.0516,-3.0555,-3.0565,-3.0567,-3.0539,-3.0537,-3.0535,-3.0529,-3.0543,0,0,0,0,0,-3.0179,-3.0204,-3.0253,-3.0269,-3.0284,-3.0325,-3.0342,-3.0365,-3.0399,-3.0412,-3.0444,-3.0476,-3.0504,-3.0522,-3.055,-3.0572,-3.0584,-3.0579,-3.0577,-3.0575,-3.0576,-3.0593,-3.0593,-3.0599,-3.0599,-3.0599,0,0,-3.0165,-3.02,-3.0212,-3.0261,-3.0288,-3.0313,-3.0336,-3.036,-3.038,-3.0416,-3.0445,-3.0469,-3.0508,-3.0534,-3.0546,-3.0553,-3.0578,-3.0575,-3.0573,-3.0576,-3.0593,-3.0592,-3.0592,-3.0599,-3.0599,-3.0599,0,0,-3.0153,-3.018,-3.0199,-3.0226,-3.0268,-3.0296,-3.0301,-3.0348,-3.0366,-3.0396,-3.0425,-3.0448,-3.0495,-3.0522,-3.0542,-3.0544,-3.0564,-3.0552,-3.0542,-3.0557,-3.0557,-3.0557,-3.056,-3.056,-3.0553,-3.0553,-3.0553,0,-3.0129,-3.0169,-3.0205,-3.0229,-3.0251,-3.0287,-3.0306,-3.0331,-3.0379,-3.0393,-3.04,-3.0463,-3.049,-3.0525,-3.0526,-3.054,-3.0548,-3.0547,-3.0554,-3.0554,-3.0555,-3.0558,-3.0559,-3.0552,-3.0552,-3.0552,-3.0552,0,-3.014,-3.0167,-3.0176,-3.0224,-3.0247,-3.0268,-3.0309,-3.0328,-3.035,-3.0377,-3.0409,-3.0445,-3.0482,-3.0492,-3.0512,-3.053,-3.0534,-3.0547,-3.0558,-3.0552,-3.0556,-3.0557,-3.0549,-3.055,-3.055,-3.0551,0,0,-3.01,-3.0171,-3.0174,-3.0198,-3.0248,-3.027,-3.0294,-3.0332,-3.0349,-3.0381,-3.0404,-3.0445,-3.0459,-3.0481,-3.0506,-3.0519,-3.0522,-3.0531,-3.0533,-3.053,-3.0547,-3.0538,-3.0539,-3.0536,-3.0536,-3.0536,-3.0545,0,-3.0096,-3.0142,-3.0178,-3.021,-3.0237,-3.0273,-3.0295,-3.0329,-3.0356,-3.0383,-3.0413,-3.0442,-3.0457,-3.0471,-3.0487,-3.0519,-3.0526,-3.0518,-3.0558,-3.0559,-3.0549,-3.0541,-3.053,-3.0536,-3.0546,-3.0547,-3.0547,0,-3.0097,-3.0132,-3.0168,-3.0219,-3.0232,-3.025,-3.0291,-3.0315,-3.0355,-3.0375,-3.0402,-3.0428,-3.0456,-3.0465,-3.0506,-3.05,-3.0519,-3.0537,-3.0538,-3.0544,-3.0553,-3.0548,-3.0539,-3.054,-3.0549,-3.0549,-3.0549,0,-3.0068,-3.0122,-3.0153,-3.0171,-3.0231,-3.0244,-3.0269,-3.031,-3.0332,-3.0367,-3.0382,-3.0419,-3.0439,-3.0468,-3.0504,-3.0506,-3.0542,-3.0553,-3.056,-3.0559,-3.0566,-3.0565,-3.0561,-3.0575,-3.0575,-3.0575,-3.0575,0,-3.0061,-3.0082,-3.0141,-3.0159,-3.0185,-3.0226,-3.025,-3.0279,-3.0315,-3.034,-3.0373,-3.0396,-3.0441,-3.047,-3.0498,-3.0529,-3.0538,-3.0555,-3.0562,-3.0553,-3.0551,-3.0566,-3.0567,-3.0576,-3.0576,-3.0576,-3.0576,0,-3.0032,-3.0071,-3.0107,-3.0162,-3.0176,-3.0193,-3.0241,-3.026,-3.0291,-3.0322,-3.0332,-3.038,-3.0416,-3.0455,-3.0503,-3.0522,-3.0552,-3.0562,-3.0539,-3.0544,-3.0549,-3.0549,-3.0556,-3.056,-3.0569,-3.0569,-3.0569,0,-3.0025,-3.0043,-3.0101,-3.0121,-3.0146,-3.0177,-3.0201,-3.0243,-3.0266,-3.0315,-3.033,-3.0369,-3.0402,-3.0458,-3.0497,-3.0535,-3.0547,-3.0547,-3.0552,-3.0543,-3.0549,-3.0548,-3.0551,-3.0545,-3.0544,-3.0544,-3.0544,0,-3.001,-3.003,-3.0063,-3.0105,-3.0133,-3.0167,-3.0202,-3.0216,-3.0265,-3.029,-3.0328,-3.0354,-3.0406,-3.0445,-3.0488,-3.0515,-3.0538,-3.0542,-3.0546,-3.0537,-3.0524,-3.0533,-3.0536,-3.0542,-3.0542,-3.0542,-3.0542,-3.0542,-2.9994,-3.0013,-3.0058,-3.0095,-3.0126,-3.0159,-3.0182,-3.0216,-3.0249,-3.0295,-3.0318,-3.0357,-3.0399,-3.046,-3.0486,-3.0518,-3.0525,-3.053,-3.0531,-3.0532,-3.0531,-3.0518,-3.0525,-3.0526,-3.0526,-3.0526,-3.0526,0,-2.9982,-3.0014,-3.0048,-3.0098,-3.0127,-3.0148,-3.0189,-3.0213,-3.0247,-3.0285,-3.0318,-3.0364,-3.0403,-3.0445,-3.0487,-3.0504,-3.0516,-3.0514,-3.0513,-3.052,-3.0521,-3.0515,-3.0504,-3.0504,-3.0504,-3.0504,-3.0504,-3.0504,-2.998,-3.0014,-3.004,-3.0091,-3.0122,-3.0162,-3.0184,-3.0215,-3.0246,-3.0296,-3.0329,-3.0358,-3.0399,-3.0444,-3.0481,-3.0493,-3.0507,-3.0502,-3.0517,-3.0517,-3.0519,-3.0521,-3.0515,-3.0504,-3.0504,-3.0513,-3.0513,-3.0513]}]]